CAPE
0 0 5 404 367 707 964 1028 1103 1256 1209 1169 1159 1164 1084 971 790 613 497 305 85 4 4 0 0 120 167 407 359 245 340 365 244 612 630 672 701 745 812 763 740 760 981
0 0 6 340 398 542 587 707 781 867 901 1001 1022 886 1001 872 859 748 665 526 323 139 7 4 2 0 0 24 241 124 232 354 156 405 591 519 726 572 499 701 736 878 827
0 0 0 282 307 264 357 309 299 274 299 564 775 793 769 747 686 613 630 519 480 418 269 127 39 12 0 0 14 45 0 46 136 74 195 374 374 474 396 420 496 738 768
0 0 10 55 129 189 101 71 36 75 203 370 516 644 641 616 627 543 480 454 453 413 320 282 242 149 126 115 14 5 0 0 0 6 5 36 250 323 253 305 329 321 688
0 0 11 38 28 26 27 20 13 10 16 20 45 101 173 251 138 47 27 33 63 117 280 377 296 253 219 149 171 187 100 0 0 0 3 111 387 411 613 321 290 342 542
0 0 2 37 26 16 12 7 11 11 13 10 10 19 23 19 16 13 4 4 6 8 9 10 169 271 258 211 186 125 133 80 0 0 0 0 0 8 535 723 595 602 780
0 0 0 18 13 8 11 7 5 4 3 3 6 9 7 8 9 8 7 5 5 6 9 9 10 7 196 238 209 165 94 5 0 1 0 0 0 0 101 401 547 567 425
0 0 0 0 3 6 4 2 0 0 0 0 0 0 0 1 2 0 2 3 4 6 6 5 10 8 4 45 76 64 22 10 3 5 0 0 0 0 195 346 371 391 325
0 0 0 0 0 0 0 0 0 0 0 0 0 0 0 0 0 0 0 0 0 0 0 0 0 0 1 1 2 1 0 0 27 57 19 0 0 0 15 439 440 451 382
0 0 0 0 0 0 0 0 0 0 0 0 0 0 0 0 0 0 0 0 0 0 0 0 0 0 0 0 0 0 0 0 14 68 119 119 20 162 27 64 337 404 525
0 0 0 0 0 0 0 0 0 0 0 0 0 0 0 0 0 0 0 0 0 0 0 0 0 0 0 0 0 0 0 0 1 22 29 4 37 257 157 53 41 294 439
0 0 0 0 0 0 0 0 0 0 0 0 0 0 0 0 0 0 0 0 0 0 0 0 0 0 0 0 0 0 0 0 0 2 10 0 0 18 265 244 65 2 293
0 0 0 0 0 0 0 0 0 0 0 0 0 0 0 0 0 0 0 0 0 0 0 0 0 0 0 0 0 0 0 0 0 0 0 0 0 0 3 87 334 140 143
0 0 0 0 0 0 0 0 0 0 0 0 0 0 0 0 0 0 0 0 0 0 0 0 0 0 0 0 0 0 0 0 0 0 0 0 0 0 0 2 13 396 405
0 0 0 0 0 0 0 0 0 0 0 0 0 0 0 0 0 0 0 0 0 0 0 0 0 0 0 0 0 0 0 0 0 0 0 0 0 0 0 0 0 31 515
0 0 0 0 0 0 0 0 0 0 0 0 0 0 0 0 0 0 0 0 0 0 0 0 0 0 0 0 0 0 0 0 0 0 0 0 0 0 0 0 0 0 96
0 0 0 0 0 0 0 0 0 0 0 0 0 0 0 0 0 0 0 0 0 0 0 0 0 0 0 0 0 0 0 0 0 0 0 0 0 0 0 0 0 0 0
0 0 0 0 0 0 0 0 0 0 0 0 0 0 0 0 0 0 0 0 0 0 0 0 0 0 0 0 0 0 0 0 0 0 0 0 0 0 0 0 0 0 0
0 0 0 0 0 0 0 0 0 0 0 0 0 0 0 0 0 0 0 0 0 0 0 0 0 0 0 0 0 0 0 0 0 0 0 0 0 0 0 0 0 0 0
0 0 0 0 0 0 0 0 0 0 0 0 0 0 0 0 0 0 0 0 0 0 0 0 0 0 0 0 0 0 0 0 0 0 0 0 0 1 1 0 0 0 9
0 0 0 0 0 0 0 0 0 0 0 0 0 0 0 0 0 0 0 0 0 0 0 0 0 0 0 0 0 0 0 0 0 0 0 0 0 0 0 0 0 0 0
0 0 0 0 0 0 0 0 0 0 0 0 0 0 0 0 0 0 0 0 0 0 0 0 0 0 0 0 0 0 0 0 0 0 0 0 0 0 0 0 0 0 0
0 0 0 0 0 0 0 0 0 0 0 0 0 0 0 0 0 0 0 0 0 0 0 0 0 0 0 0 0 0 0 0 0 0 0 0 0 0 0 0 0 0 0
0 0 0 0 0 0 0 0 0 0 0 0 0 0 0 0 0 0 0 0 0 0 0 0 0 0 0 0 0 0 0 0 0 0 0 0 0 0 0 0 0 0 0
0 0 0 0 0 0 0 0 0 0 0 0 0 0 0 0 0 0 0 0 0 0 0 0 0 0 0 0 0 0 0 0 0 0 0 0 0 0 0 0 0 0 0
0 0 0 0 0 0 0 0 0 0 0 0 0 0 0 0 0 0 0 0 0 0 0 0 0 0 0 0 0 0 0 0 0 0 0 0 0 0 0 0 0 0 0
CIN
0 0 0 0 -2 -3 0 0 0 0 0 0 0 0 0 0 0 0 0 -2 -28 0 0 0 0 -8 -2 0 0 -3 -5 -5 -14 -6 -10 -9 -3 -6 -1 -4 -7 0 0
0 0 0 0 0 -2 -4 0 0 0 0 0 0 0 0 0 0 0 0 0 0 -3 0 0 0 0 0 -20 0 -2 -10 -15 -30 -13 -15 -17 -11 -4 -5 -6 -4 -2 0
0 0 0 -1 0 0 0 -2 -4 0 -4 0 0 0 0 0 0 0 0 0 0 0 0 -1 -8 -1 0 0 -12 -6 0 -23 -35 -53 -34 -1 0 -6 -6 -8 -6 -2 -1
0 0 0 -9 -5 -1 -16 -43 -49 -34 -4 -1 0 0 0 0 0 0 0 0 0 0 0 0 -1 0 0 -1 -6 -4 0 0 0 -50 -16 -18 0 -7 -6 -8 -10 -15 -4
0 0 0 0 0 0 0 0 0 0 0 -5 -23 -6 -1 0 -1 -1 -2 -1 -6 -2 0 0 0 0 0 0 0 0 -8 0 0 0 -9 -1 0 -5 -3 -5 -6 -10 -6
0 0 0 0 0 0 0 0 0 0 0 0 0 0 0 0 0 0 0 0 0 0 0 0 -1 0 0 0 -1 -4 -2 -16 0 0 0 0 0 -92 -3 0 -1 -3 -1
0 0 0 0 0 0 0 0 0 0 0 0 0 0 0 0 0 0 0 0 0 0 0 0 0 0 0 0 0 -1 -2 -6 0 0 0 0 0 0 -22 0 0 0 0
0 0 0 0 0 0 0 0 0 0 0 0 0 0 0 0 0 0 0 0 0 0 0 0 0 0 0 -3 0 0 -6 -26 0 0 0 0 0 0 -2 0 -2 -2 -2
0 0 0 0 0 0 0 0 0 0 0 0 0 0 0 0 0 0 0 0 0 0 0 0 0 0 0 0 0 0 0 0 -23 -27 -47 0 0 0 -25 0 -1 -2 0
0 0 0 0 0 0 0 0 0 0 0 0 0 0 0 0 0 0 0 0 0 0 0 0 0 0 0 0 0 0 0 -1 0 -33 -4 -7 -79 -3 -39 -28 0 -1 -2
0 0 0 0 0 0 0 0 0 0 0 0 0 0 0 0 0 0 0 0 0 0 0 0 0 0 0 0 0 0 0 0 0 0 -52 -16 -62 0 -5 -7 -24 0 -1
0 0 0 0 0 0 0 0 0 0 0 0 0 0 0 0 0 0 0 0 0 0 0 0 0 0 0 0 0 0 0 0 0 0 0 0 0 -3 -1 -2 -25 -7 -1
0 0 0 0 0 0 0 0 0 0 0 0 0 0 0 0 0 0 0 0 0 0 0 0 0 0 0 0 0 0 0 0 0 0 0 0 0 0 0 -14 0 -22 -26
0 0 0 0 0 0 0 0 0 0 0 0 0 0 0 0 0 0 0 0 0 0 0 0 0 0 0 0 0 0 0 0 0 0 0 0 0 0 0 0 -6 0 -1
0 0 0 0 0 0 0 0 0 0 0 0 0 0 0 0 0 0 0 0 0 0 0 0 0 0 0 0 0 0 0 0 0 0 0 0 0 0 0 0 0 -3 0
0 0 0 0 0 0 0 0 0 0 0 0 0 0 0 0 0 0 0 0 0 0 0 0 0 0 0 0 0 0 0 0 0 0 0 0 0 0 0 0 0 0 -13
0 0 0 0 0 0 0 0 0 0 0 0 0 0 0 0 0 0 0 0 0 0 0 0 0 0 0 0 0 0 0 0 0 0 0 0 0 0 0 0 0 0 0
0 0 0 0 0 0 0 0 0 0 0 0 0 0 0 0 0 0 0 0 0 0 0 0 0 0 0 0 0 0 0 0 0 0 0 0 0 0 0 0 0 0 0
0 0 0 0 0 0 0 0 0 0 0 0 0 0 0 0 0 0 0 0 0 0 0 0 0 0 0 0 0 0 0 0 0 0 0 0 0 0 0 0 0 0 0
0 0 0 0 0 0 0 0 0 0 0 0 0 0 0 0 0 0 0 0 0 0 0 0 0 0 0 0 0 0 0 0 0 0 0 0 0 0 0 0 0 0 -5
0 0 0 0 0 0 0 0 0 0 0 0 0 0 0 0 0 0 0 0 0 0 0 0 0 0 0 0 0 0 0 0 0 0 0 0 0 0 0 0 0 0 0
0 0 0 0 0 0 0 0 0 0 0 0 0 0 0 0 0 0 0 0 0 0 0 0 0 0 0 0 0 0 0 0 0 0 0 0 0 0 0 0 0 0 0
0 0 0 0 0 0 0 0 0 0 0 0 0 0 0 0 0 0 0 0 0 0 0 0 0 0 0 0 0 0 0 0 0 0 0 0 0 0 0 0 0 0 0
0 0 0 0 0 0 0 0 0 0 0 0 0 0 0 0 0 0 0 0 0 0 0 0 0 0 0 0 0 0 0 0 0 0 0 0 0 0 0 0 0 0 0
0 0 0 0 0 0 0 0 0 0 0 0 0 0 0 0 0 0 0 0 0 0 0 0 0 0 0 0 0 0 0 0 0 0 0 0 0 0 0 0 0 0 0
0 0 0 0 0 0 0 0 0 0 0 0 0 0 0 0 0 0 0 0 0 0 0 0 0 0 0 0 0 0 0 0 0 0 0 0 0 0 0 0 0 0 0
Wind_Speed
12 20 26 13 10 11 14 15 16 16 15 15 16 15 15 15 16 16 17 17 17 16 16 16 16 15 15 14 14 15 15 14 13 13 10 8 7 5 5 3 3 9 9
14 16 23 19 21 17 16 18 18 18 17 16 16 16 17 16 16 16 16 16 16 16 16 15 15 14 14 13 14 15 14 13 12 11 9 5 8 6 4 3 4 6 9
12 14 16 22 22 20 22 23 21 20 20 20 18 18 17 17 17 17 17 17 17 16 15 15 14 14 14 13 12 13 14 14 11 8 8 6 7 7 6 4 2 4 8
12 14 15 22 23 23 23 22 21 22 22 22 22 24 22 21 21 20 19 18 17 16 14 14 13 13 12 12 12 12 12 12 11 10 4 7 6 7 5 4 2 2 5
11 14 16 21 22 22 22 22 21 22 21 21 21 22 21 22 21 21 21 21 21 20 19 16 13 12 11 11 11 11 11 11 9 8 7 7 5 8 10 5 2 3 4
9 11 17 20 21 20 20 20 21 22 22 21 21 22 22 22 22 22 21 20 20 20 20 19 19 15 13 11 10 11 11 12 14 7 6 5 6 9 9 9 6 4 2
9 10 12 19 19 20 21 21 21 22 21 22 22 23 22 23 22 22 22 21 20 20 20 20 20 18 16 14 12 12 10 10 9 8 7 6 5 10 10 9 7 6 6
8 8 9 13 17 20 21 21 21 22 22 22 23 22 23 22 23 22 23 22 21 21 20 20 21 21 19 18 16 15 12 8 9 6 7 8 7 11 12 11 8 8 8
9 9 9 10 11 16 20 21 21 22 22 23 23 22 20 21 21 22 22 22 21 21 21 21 20 20 19 18 19 18 15 9 9 5 7 5 12 14 14 13 11 10 10
11 11 11 9 10 11 12 18 20 22 23 22 23 20 18 18 19 20 21 21 22 20 21 21 21 20 19 17 18 19 18 12 9 8 6 5 10 12 13 14 13 10 12
10 12 11 11 10 10 11 13 15 20 21 20 17 19 14 11 14 15 18 20 21 20 20 20 20 20 20 14 14 17 15 8 11 6 5 13 15 13 11 12 15 14 13
12 12 10 11 11 10 9 11 12 11 11 13 14 14 11 12 12 12 13 18 18 21 18 19 18 17 15 10 9 11 7 11 8 9 7 13 16 16 16 13 11 14 16
8 9 10 10 11 10 10 7 6 6 7 8 15 13 11 9 9 8 8 8 10 15 10 13 12 9 13 9 9 9 10 10 7 7 9 11 17 19 17 17 16 14 14
10 10 10 10 10 11 7 7 8 8 8 8 10 14 10 7 9 9 8 9 9 9 11 10 8 11 12 11 11 11 11 10 8 7 9 10 17 19 19 19 17 18 18
10 9 10 10 10 9 10 7 8 8 7 8 9 12 10 9 10 9 9 9 9 10 10 10 10 11 12 12 12 12 12 12 12 8 8 13 16 18 19 19 19 19 19
8 8 8 9 9 9 9 10 7 7 7 8 8 10 12 9 9 9 9 9 9 10 10 10 11 10 11 11 13 13 14 12 12 13 10 12 16 18 20 19 19 19 20
7 7 7 8 7 8 8 7 6 6 7 7 8 10 11 11 11 10 8 8 9 9 12 11 11 11 11 11 14 13 13 14 13 15 13 11 13 15 16 19 19 20 19
8 8 7 6 7 7 7 7 6 7 7 7 7 7 12 12 12 10 8 9 10 9 9 10 10 11 11 12 12 12 13 14 16 16 14 12 11 11 13 17 17 18 19
7 7 7 7 8 7 7 6 6 7 6 6 6 7 10 10 11 10 8 9 12 10 9 10 10 11 12 12 12 13 13 13 14 14 16 16 14 12 9 14 14 14 17
7 7 6 6 7 6 4 3 3 4 5 5 6 7 9 8 10 9 7 9 10 9 10 10 13 11 12 13 13 14 11 13 12 12 12 10 10 10 9 11 10 8 7
6 6 6 6 7 5 4 4 3 5 5 5 6 8 9 9 10 10 8 9 8 9 10 11 11 13 11 12 13 13 12 13 10 9 8 9 10 7 10 10 7 8 9
7 6 6 6 6 6 4 4 3 5 4 5 5 7 9 10 10 9 10 9 10 9 11 11 12 11 10 10 10 13 9 12 6 11 13 11 10 8 10 12 11 12 10
9 7 6 5 5 6 6 3 3 1 3 3 6 6 8 10 9 9 10 9 10 9 8 11 11 13 11 11 10 7 8 6 15 7 12 12 10 10 13 13 13 12 14
10 8 6 5 5 5 5 5 6 5 6 5 7 7 8 9 9 9 9 9 10 8 10 9 9 10 11 11 9 8 12 14 8 13 6 12 15 14 13 11 13 15 15
10 8 6 5 4 4 5 5 5 6 5 6 6 10 10 9 9 9 10 11 11 9 10 12 12 12 10 11 11 10 12 12 14 14 18 13 12 11 12 13 14 13 15
10 8 6 5 4 4 4 5 5 6 7 7 8 8 7 8 8 10 11 11 11 11 12 12 13 14 13 13 12 13 12 12 11 14 16 17 17 13 13 13 14 13 13
Wind_Direction
325 323 328 35 41 55 59 57 57 54 54 58 61 64 66 64 63 58 54 52 49 46 45 46 45 41 41 41 43 40 36 32 31 30 36 49 35 69 94 88 172 101 88
308 320 326 42 46 46 57 55 53 51 50 51 54 57 58 55 52 53 53 50 49 45 42 42 42 41 38 37 34 33 34 37 39 24 0 114 68 32 43 61 7 102 103
328 338 348 39 49 53 53 54 52 50 48 45 47 46 50 53 52 49 44 41 38 38 37 35 35 34 34 30 30 31 30 28 35 23 323 31 61 32 35 25 54 128 112
349 1 6 40 45 48 52 52 51 52 49 51 51 49 50 50 48 45 43 38 35 32 30 29 27 25 23 22 23 22 26 25 10 332 19 15 13 42 12 5 356 181 126
7 15 12 44 47 46 48 52 50 52 52 50 49 49 49 47 47 44 44 40 35 31 27 23 20 18 16 14 9 15 13 9 346 314 6 28 347 39 348 338 281 173 190
23 28 15 42 49 53 55 54 53 54 53 54 51 49 50 47 45 43 41 39 34 30 28 23 18 13 13 7 2 8 6 357 318 342 339 4 337 2 343 325 326 330 245
41 40 34 37 47 52 53 52 52 53 54 53 51 50 48 48 44 41 39 35 32 30 27 24 22 17 13 9 8 7 6 352 332 332 328 325 329 340 332 335 280 270 260
44 48 52 53 44 48 50 50 50 51 48 49 48 48 46 44 42 41 35 33 30 27 25 23 21 18 16 17 17 12 6 355 310 323 332 318 20 333 328 319 306 241 248
49 45 42 40 52 57 46 47 48 49 48 46 47 45 45 44 41 38 36 30 28 25 23 19 17 15 13 14 12 5 351 331 300 331 315 309 12 330 322 325 328 239 242
47 42 42 42 39 45 45 42 44 45 43 41 41 39 37 40 35 37 29 26 24 22 19 16 13 11 6 9 7 0 339 290 344 317 311 0 340 322 318 314 316 280 250
51 39 37 35 42 47 46 43 40 39 39 35 31 33 36 33 26 27 26 21 21 16 15 13 11 8 359 0 4 351 321 350 333 331 319 15 333 319 309 309 305 303 268
48 41 37 40 43 45 45 39 42 42 42 35 30 30 28 27 24 15 20 16 15 9 9 6 7 7 3 354 350 343 346 337 331 327 318 357 335 327 319 301 290 294 293
71 58 46 50 47 48 49 43 40 40 37 33 30 27 25 24 17 18 12 9 5 4 5 359 359 4 354 352 346 338 333 329 319 316 314 343 327 326 321 315 300 279 284
69 59 51 51 54 53 52 51 50 44 40 35 32 25 21 19 16 12 11 6 4 360 356 355 349 344 341 341 337 331 327 321 316 307 304 319 317 313 313 313 305 294 281
80 66 56 52 53 53 55 52 49 45 41 38 34 27 19 17 11 2 4 1 360 353 353 347 344 339 335 334 330 324 320 315 311 307 305 302 300 302 301 301 302 298 287
95 79 67 60 58 59 58 57 52 47 39 37 36 27 23 16 9 2 359 360 357 351 346 341 337 335 328 328 323 321 313 307 304 301 299 298 295 294 294 292 290 292 294
95 87 74 70 59 61 60 56 53 46 41 37 30 29 21 16 5 360 356 356 353 343 339 338 335 334 326 326 318 317 313 311 304 299 296 293 292 281 281 290 288 288 287
105 88 74 63 60 59 56 46 46 38 39 33 27 21 16 15 7 356 353 352 346 341 340 340 337 331 329 325 320 316 314 306 300 296 293 288 288 293 291 283 289 290 288
114 100 82 66 54 47 47 50 49 43 39 33 26 20 14 11 5 356 354 350 345 342 342 341 337 332 325 321 318 315 304 298 299 297 291 288 286 282 285 289 283 283 280
120 106 93 69 46 43 48 58 55 47 31 30 22 17 8 5 2 354 350 347 344 337 337 339 334 331 324 323 319 304 308 296 287 283 291 292 289 304 328 329 324 304 324
135 122 93 78 57 42 35 15 16 15 14 15 12 2 1 357 356 348 346 341 341 335 330 328 327 326 324 327 317 320 300 284 291 297 321 315 309 318 323 326 327 338 332
152 133 109 88 63 51 39 24 2 347 2 348 348 349 355 350 349 343 338 332 332 327 325 328 329 323 318 332 321 306 325 313 89 327 301 285 302 310 314 316 321 315 321
167 149 121 97 78 53 31 22 357 323 311 331 346 337 338 333 335 332 327 321 319 318 315 319 321 318 316 314 312 305 314 306 324 274 319 294 298 317 306 307 306 310 308
163 148 132 112 82 59 32 19 8 353 338 342 321 320 322 323 319 316 313 313 311 308 305 307 307 308 302 299 299 282 276 287 298 306 298 313 298 292 302 304 307 303 300
159 157 142 131 100 68 38 13 350 336 320 318 313 317 318 317 318 317 318 317 313 311 307 304 302 299 293 290 290 293 283 281 277 276 291 288 289 292 296 295 296 294 299
157 157 154 136 98 53 15 351 330 319 321 315 318 314 315 315 317 318 322 316 310 306 305 305 300 293 288 283 281 280 278 278 280 284 286 292 291 294 290 288 289 286 291